Time,TemperatureF,DewpointF,PressureIn,WindDirection,WindDirectionDegrees,WindSpeedMPH,WindSpeedGustMPH,Humidity,HourlyPrecipIn,Conditions,Clouds,dailyrainin,SoftwareType,DateUTC
2013-09-27 00:01:00,71.3,54.2,29.83,SE,135,5.6,8.1,55,0.00,,,0.00,WUHU216HW,2013-09-27 05:01:00,
2013-09-27 00:06:00,71.3,54.2,29.83,South,180,6.3,7.8,55,0.00,,,0.00,WUHU216HW,2013-09-27 05:06:00,
2013-09-27 00:11:00,71.3,54.2,29.83,SE,135,3.8,6.3,55,0.00,,,0.00,WUHU216HW,2013-09-27 05:11:00,
2013-09-27 00:16:00,71.3,54.2,29.83,SSE,158,6.9,6.9,55,0.00,,,0.00,WUHU216HW,2013-09-27 05:16:00,
2013-09-27 00:21:00,71.3,54.2,29.83,SE,135,7.8,7.8,55,0.00,,,0.00,WUHU216HW,2013-09-27 05:21:00,
2013-09-27 00:26:00,71.1,54.1,29.83,SSE,158,5.8,7.8,55,0.00,,,0.00,WUHU216HW,2013-09-27 05:26:00,
2013-09-27 00:31:00,71.3,54.2,29.83,South,180,3.8,5.8,55,0.00,,,0.00,WUHU216HW,2013-09-27 05:31:00,
2013-09-27 00:36:00,71.3,54.7,29.83,SSE,158,4.9,4.9,56,0.00,,,0.00,WUHU216HW,2013-09-27 05:36:00,
2013-09-27 00:41:00,71.3,54.7,29.82,SSE,158,4.7,8.9,56,0.00,,,0.00,WUHU216HW,2013-09-27 05:41:00,
2013-09-27 00:46:00,71.1,54.5,29.83,SE,135,2.7,8.9,56,0.00,,,0.00,WUHU216HW,2013-09-27 05:46:00,
2013-09-27 00:51:00,70.9,54.4,29.83,SW,225,2.2,8.7,56,0.00,,,0.00,WUHU216HW,2013-09-27 05:51:00,
2013-09-27 00:57:00,70.9,54.4,29.83,ENE,68,5.6,8.1,56,0.00,,,0.00,WUHU216HW,2013-09-27 05:57:00,
2013-09-27 01:02:00,70.6,54.1,29.83,SE,135,4.3,8.1,56,0.00,,,0.00,WUHU216HW,2013-09-27 06:02:00,
2013-09-27 01:07:00,70.6,53.6,29.83,South,180,3.6,6.7,55,0.00,,,0.00,WUHU216HW,2013-09-27 06:07:00,
2013-09-27 01:11:00,70.6,53.6,29.83,SE,135,6.0,6.9,55,0.00,,,0.00,WUHU216HW,2013-09-27 06:11:00,
2013-09-27 01:16:00,70.4,53.4,29.83,SSE,158,5.4,9.2,55,0.00,,,0.00,WUHU216HW,2013-09-27 06:16:00,
2013-09-27 01:21:00,70.4,53.4,29.83,SE,135,7.4,9.2,55,0.00,,,0.00,WUHU216HW,2013-09-27 06:21:00,
2013-09-27 01:26:00,70.2,53.3,29.83,South,180,6.5,7.8,55,0.00,,,0.00,WUHU216HW,2013-09-27 06:26:00,
2013-09-27 01:31:00,70.0,53.1,29.83,SSE,158,6.7,6.7,55,0.00,,,0.00,WUHU216HW,2013-09-27 06:31:00,
2013-09-27 01:36:00,69.8,52.4,29.83,East,90,2.2,6.7,54,0.00,,,0.00,WUHU216HW,2013-09-27 06:36:00,
2013-09-27 01:41:00,69.5,52.1,29.83,SSE,158,5.1,5.1,54,0.00,,,0.00,WUHU216HW,2013-09-27 06:41:00,
2013-09-27 01:46:00,69.5,51.1,29.84,SSE,158,6.5,6.9,52,0.00,,,0.00,WUHU216HW,2013-09-27 06:46:00,
2013-09-27 01:51:00,69.3,51.4,29.84,SSE,158,4.7,6.9,53,0.00,,,0.00,WUHU216HW,2013-09-27 06:51:00,
2013-09-27 01:56:00,69.3,51.0,29.84,SSE,158,4.7,6.5,52,0.00,,,0.00,WUHU216HW,2013-09-27 06:56:00,
2013-09-27 02:01:00,69.1,50.8,29.84,ENE,68,2.5,6.3,52,0.00,,,0.00,WUHU216HW,2013-09-27 07:01:00,
2013-09-27 02:06:00,68.9,49.6,29.84,SE,135,2.5,6.3,50,0.00,,,0.00,WUHU216HW,2013-09-27 07:06:00,
2013-09-27 02:11:00,68.9,50.1,29.84,SE,135,4.7,4.7,51,0.00,,,0.00,WUHU216HW,2013-09-27 07:11:00,
2013-09-27 02:16:00,68.9,50.1,29.84,SSE,158,5.1,7.2,51,0.00,,,0.00,WUHU216HW,2013-09-27 07:16:00,
2013-09-27 02:21:00,68.8,50.0,29.85,East,90,4.7,9.6,51,0.00,,,0.00,WUHU216HW,2013-09-27 07:21:00,
2013-09-27 02:26:00,68.6,48.7,29.85,ESE,113,6.9,9.6,49,0.00,,,0.00,WUHU216HW,2013-09-27 07:26:00,
2013-09-27 02:31:00,68.6,48.7,29.85,NE,45,2.2,6.9,49,0.00,,,0.00,WUHU216HW,2013-09-27 07:31:00,
2013-09-27 02:36:00,68.4,48.5,29.85,SE,135,3.4,3.8,49,0.00,,,0.00,WUHU216HW,2013-09-27 07:36:00,
2013-09-27 02:41:00,68.2,48.3,29.85,ENE,68,1.1,3.8,49,0.00,,,0.00,WUHU216HW,2013-09-27 07:41:00,
2013-09-27 02:46:00,68.0,47.6,29.85,SE,135,4.9,4.9,48,0.00,,,0.00,WUHU216HW,2013-09-27 07:46:00,
2013-09-27 02:50:00,67.9,46.8,29.85,South,180,1.8,4.9,47,0.00,,,0.00,WUHU216HW,2013-09-27 07:50:00,
2013-09-27 02:55:00,67.9,46.8,29.85,South,180,2.5,4.9,47,0.00,,,0.00,WUHU216HW,2013-09-27 07:55:00,
2013-09-27 03:00:00,67.7,46.7,29.85,SSE,158,1.3,2.5,47,0.00,,,0.00,WUHU216HW,2013-09-27 08:00:00,
2013-09-27 03:05:00,67.5,45.9,29.85,SE,135,2.5,3.1,46,0.00,,,0.00,WUHU216HW,2013-09-27 08:05:00,
2013-09-27 03:10:00,67.3,45.7,29.85,SSE,158,1.3,3.1,46,0.00,,,0.00,WUHU216HW,2013-09-27 08:10:00,
2013-09-27 03:14:00,67.3,45.2,29.85,SE,135,3.1,3.1,45,0.00,,,0.00,WUHU216HW,2013-09-27 08:14:00,
2013-09-27 03:19:00,67.3,45.7,29.85,East,90,2.5,4.0,46,0.00,,,0.00,WUHU216HW,2013-09-27 08:19:00,
2013-09-27 03:24:00,67.3,45.7,29.85,South,180,1.3,4.0,46,0.00,,,0.00,WUHU216HW,2013-09-27 08:24:00,
2013-09-27 03:29:00,67.1,45.0,29.85,SSE,158,2.5,3.6,45,0.00,,,0.00,WUHU216HW,2013-09-27 08:29:00,
2013-09-27 03:35:00,67.1,45.0,29.85,SSE,158,3.6,4.3,45,0.00,,,0.00,WUHU216HW,2013-09-27 08:35:00,
2013-09-27 03:40:00,67.0,44.8,29.85,South,180,2.2,4.3,45,0.00,,,0.00,WUHU216HW,2013-09-27 08:40:00,
2013-09-27 03:45:00,67.1,45.0,29.85,SE,135,4.7,4.7,45,0.00,,,0.00,WUHU216HW,2013-09-27 08:45:00,
2013-09-27 03:50:00,67.0,44.8,29.85,ESE,113,2.7,4.7,45,0.00,,,0.00,WUHU216HW,2013-09-27 08:50:00,
2013-09-27 03:55:00,67.0,44.8,29.85,ESE,113,3.1,4.5,45,0.00,,,0.00,WUHU216HW,2013-09-27 08:55:00,
2013-09-27 04:00:00,67.0,44.8,29.85,ESE,113,2.5,4.0,45,0.00,,,0.00,WUHU216HW,2013-09-27 09:00:00,
2013-09-27 04:05:00,67.0,44.8,29.85,SSE,158,3.4,4.0,45,0.00,,,0.00,WUHU216HW,2013-09-27 09:05:00,
2013-09-27 04:10:00,67.1,45.0,29.85,SSE,158,2.5,4.7,45,0.00,,,0.00,WUHU216HW,2013-09-27 09:10:00,
2013-09-27 04:15:00,67.1,45.0,29.85,ESE,113,3.6,4.7,45,0.00,,,0.00,WUHU216HW,2013-09-27 09:15:00,
2013-09-27 04:20:00,67.0,45.5,29.85,ENE,68,4.0,4.0,46,0.00,,,0.00,WUHU216HW,2013-09-27 09:20:00,
2013-09-27 04:25:00,67.0,44.8,29.86,SE,135,3.4,4.0,45,0.00,,,0.00,WUHU216HW,2013-09-27 09:25:00,
2013-09-27 04:30:00,67.0,44.3,29.85,SE,135,4.0,4.0,44,0.00,,,0.00,WUHU216HW,2013-09-27 09:30:00,
2013-09-27 04:35:00,66.8,44.6,29.86,South,180,5.1,5.1,45,0.00,,,0.00,WUHU216HW,2013-09-27 09:35:00,
2013-09-27 04:40:00,67.0,44.8,29.86,East,90,3.1,5.1,45,0.00,,,0.00,WUHU216HW,2013-09-27 09:40:00,
2013-09-27 04:45:00,67.0,45.5,29.86,SSE,158,6.9,6.9,46,0.00,,,0.00,WUHU216HW,2013-09-27 09:45:00,
2013-09-27 04:50:00,67.0,45.5,29.86,SSE,158,1.8,6.9,46,0.00,,,0.00,WUHU216HW,2013-09-27 09:50:00,
2013-09-27 04:55:00,67.0,45.5,29.86,ESE,113,3.4,6.3,46,0.00,,,0.00,WUHU216HW,2013-09-27 09:55:00,
2013-09-27 05:00:00,67.0,46.0,29.86,SE,135,1.6,5.1,47,0.00,,,0.00,WUHU216HW,2013-09-27 10:00:00,
2013-09-27 05:05:00,67.0,46.0,29.86,ESE,113,4.0,5.1,47,0.00,,,0.00,WUHU216HW,2013-09-27 10:05:00,
2013-09-27 05:10:00,67.0,46.0,29.86,SE,135,3.8,4.9,47,0.00,,,0.00,WUHU216HW,2013-09-27 10:10:00,
2013-09-27 05:15:00,67.0,45.5,29.87,SSE,158,3.6,4.9,46,0.00,,,0.00,WUHU216HW,2013-09-27 10:15:00,
2013-09-27 05:20:00,67.0,46.0,29.87,SE,135,1.8,3.8,47,0.00,,,0.00,WUHU216HW,2013-09-27 10:20:00,
2013-09-27 05:25:00,66.8,45.3,29.87,ESE,113,3.1,4.0,46,0.00,,,0.00,WUHU216HW,2013-09-27 10:25:00,
2013-09-27 05:30:00,66.6,45.1,29.87,South,180,2.7,4.0,46,0.00,,,0.00,WUHU216HW,2013-09-27 10:30:00,
2013-09-27 05:35:00,66.6,44.6,29.87,SSE,158,3.1,3.1,45,0.00,,,0.00,WUHU216HW,2013-09-27 10:35:00,
2013-09-27 05:40:00,66.6,44.6,29.87,SE,135,3.1,3.1,45,0.00,,,0.00,WUHU216HW,2013-09-27 10:40:00,
2013-09-27 05:45:00,66.4,43.7,29.87,South,180,1.8,4.3,44,0.00,,,0.00,WUHU216HW,2013-09-27 10:45:00,
2013-09-27 05:50:00,66.4,43.7,29.87,SSE,158,2.5,4.3,44,0.00,,,0.00,WUHU216HW,2013-09-27 10:50:00,
2013-09-27 05:55:00,66.2,43.6,29.87,South,180,5.4,5.4,44,0.00,,,0.00,WUHU216HW,2013-09-27 10:55:00,
2013-09-27 06:00:00,66.2,43.0,29.87,SE,135,3.4,6.0,43,0.00,,,0.00,WUHU216HW,2013-09-27 11:00:00,
2013-09-27 06:05:00,66.1,42.9,29.87,SSE,158,5.1,6.0,43,0.00,,,0.00,WUHU216HW,2013-09-27 11:05:00,
2013-09-27 06:10:00,66.2,43.0,29.87,SE,135,4.3,5.1,43,0.00,,,0.00,WUHU216HW,2013-09-27 11:10:00,
2013-09-27 06:15:00,66.1,42.9,29.87,SSE,158,4.7,5.1,43,0.00,,,0.00,WUHU216HW,2013-09-27 11:15:00,
2013-09-27 06:20:00,65.9,42.1,29.87,SE,135,4.3,6.9,42,0.00,,,0.00,WUHU216HW,2013-09-27 11:20:00,
2013-09-27 06:25:00,65.9,42.7,29.88,SSE,158,3.4,4.7,43,0.00,,,0.00,WUHU216HW,2013-09-27 11:25:00,
2013-09-27 06:30:00,65.9,41.5,29.88,SE,135,4.0,4.3,41,0.00,,,0.00,WUHU216HW,2013-09-27 11:30:00,
2013-09-27 06:35:00,65.9,40.9,29.88,SSE,158,2.5,5.4,40,0.00,,,0.00,WUHU216HW,2013-09-27 11:35:00,
2013-09-27 06:40:00,65.9,40.9,29.88,SE,135,2.5,5.4,40,0.00,,,0.00,WUHU216HW,2013-09-27 11:40:00,
2013-09-27 06:45:00,65.7,40.8,29.88,SE,135,3.6,3.6,40,0.00,,,0.00,WUHU216HW,2013-09-27 11:45:00,
2013-09-27 06:50:00,65.7,40.8,29.88,SE,135,4.3,4.3,40,0.00,,,0.00,WUHU216HW,2013-09-27 11:50:00,
2013-09-27 06:55:00,65.5,39.2,29.88,SE,135,2.5,4.7,38,0.00,,,0.00,WUHU216HW,2013-09-27 11:55:00,
2013-09-27 07:00:00,65.5,39.2,29.88,SSW,203,4.0,4.7,38,0.00,,,0.00,WUHU216HW,2013-09-27 12:00:00,
2013-09-27 07:05:00,65.5,39.2,29.88,South,180,3.4,4.0,38,0.00,,,0.00,WUHU216HW,2013-09-27 12:05:00,
2013-09-27 07:10:00,65.3,38.3,29.88,SSE,158,4.0,4.0,37,0.00,,,0.00,WUHU216HW,2013-09-27 12:10:00,
2013-09-27 07:15:00,65.2,37.4,29.88,SSE,158,5.4,5.4,36,0.00,,,0.00,WUHU216HW,2013-09-27 12:15:00,
2013-09-27 07:20:00,65.2,38.1,29.88,SE,135,6.5,6.5,37,0.00,,,0.00,WUHU216HW,2013-09-27 12:20:00,
2013-09-27 07:25:00,65.2,35.9,29.88,ESE,113,1.8,6.5,34,0.00,,,0.00,WUHU216HW,2013-09-27 12:25:00,
2013-09-27 07:30:00,65.2,37.4,29.89,SSE,158,5.4,6.5,36,0.00,,,0.00,WUHU216HW,2013-09-27 12:30:00,
2013-09-27 07:35:00,65.3,37.5,29.89,ESE,113,5.8,5.8,36,0.00,,,0.00,WUHU216HW,2013-09-27 12:35:00,
2013-09-27 07:40:00,65.3,36.8,29.89,SSE,158,4.7,5.8,35,0.00,,,0.00,WUHU216HW,2013-09-27 12:40:00,
2013-09-27 07:45:00,65.5,36.3,29.89,SSE,158,4.3,5.8,34,0.00,,,0.00,WUHU216HW,2013-09-27 12:45:00,
2013-09-27 07:50:00,65.5,36.3,29.89,SSE,158,5.8,5.8,34,0.00,,,0.00,WUHU216HW,2013-09-27 12:50:00,
2013-09-27 07:55:00,65.7,36.5,29.89,South,180,4.3,5.8,34,0.00,,,0.00,WUHU216HW,2013-09-27 12:55:00,
2013-09-27 08:00:00,66.2,38.3,29.89,SSW,203,1.6,7.2,36,0.00,,,0.00,WUHU216HW,2013-09-27 13:00:00,
2013-09-27 08:05:00,66.2,38.3,29.89,SSW,203,4.0,7.2,36,0.00,,,0.00,WUHU216HW,2013-09-27 13:05:00,
2013-09-27 08:10:00,66.6,38.6,29.89,South,180,2.2,5.8,36,0.00,,,0.00,WUHU216HW,2013-09-27 13:10:00,
2013-09-27 08:15:00,67.0,41.1,29.89,SE,135,6.3,6.3,39,0.00,,,0.00,WUHU216HW,2013-09-27 13:15:00,
2013-09-27 08:20:00,67.7,43.1,29.89,SE,135,6.7,6.7,41,0.00,,,0.00,WUHU216HW,2013-09-27 13:20:00,
2013-09-27 08:25:00,68.0,44.7,29.89,SE,135,7.4,7.4,43,0.00,,,0.00,WUHU216HW,2013-09-27 13:25:00,
2013-09-27 08:30:00,68.2,44.8,29.90,SE,135,3.4,7.4,43,0.00,,,0.00,WUHU216HW,2013-09-27 13:30:00,
2013-09-27 08:35:00,68.8,47.1,29.89,SSE,158,7.8,8.1,46,0.00,,,0.00,WUHU216HW,2013-09-27 13:35:00,
2013-09-27 08:40:00,69.5,48.3,29.89,South,180,7.4,8.1,47,0.00,,,0.00,WUHU216HW,2013-09-27 13:40:00,
2013-09-27 08:45:00,69.5,48.9,29.90,SSE,158,6.9,7.8,48,0.00,,,0.00,WUHU216HW,2013-09-27 13:45:00,
2013-09-27 08:50:00,70.2,50.1,29.89,WNW,293,5.4,9.8,49,0.00,,,0.00,WUHU216HW,2013-09-27 13:50:00,
2013-09-27 08:55:00,72.2,54.6,29.89,SSW,203,4.3,9.8,54,0.00,,,0.00,WUHU216HW,2013-09-27 13:55:00,
2013-09-27 09:00:00,72.7,55.0,29.90,SE,135,11.0,11.0,54,0.00,,,0.00,WUHU216HW,2013-09-27 14:00:00,
2013-09-27 09:05:00,74.2,57.9,29.90,SSW,203,6.3,11.0,57,0.00,,,0.00,WUHU216HW,2013-09-27 14:05:00,
2013-09-27 09:10:00,74.7,58.4,29.90,WSW,248,4.5,6.3,57,0.00,,,0.00,WUHU216HW,2013-09-27 14:10:00,
2013-09-27 09:15:00,75.4,59.7,29.90,SSW,203,3.4,6.3,58,0.00,,,0.00,WUHU216HW,2013-09-27 14:15:00,
2013-09-27 09:20:00,76.3,60.5,29.90,East,90,5.4,6.3,58,0.00,,,0.00,WUHU216HW,2013-09-27 14:20:00,
2013-09-27 09:25:00,76.9,60.9,29.90,SSW,203,6.3,6.3,58,0.00,,,0.00,WUHU216HW,2013-09-27 14:25:00,
2013-09-27 09:30:00,77.0,61.6,29.90,SE,135,11.4,11.4,59,0.00,,,0.00,WUHU216HW,2013-09-27 14:30:00,
2013-09-27 09:35:00,77.8,61.8,29.90,SSE,158,5.4,11.4,58,0.00,,,0.00,WUHU216HW,2013-09-27 14:35:00,
2013-09-27 09:40:00,77.9,62.5,29.90,SSW,203,7.4,7.4,59,0.00,,,0.00,WUHU216HW,2013-09-27 14:40:00,
2013-09-27 09:45:00,77.6,61.7,29.90,South,180,5.1,9.6,58,0.00,,,0.00,WUHU216HW,2013-09-27 14:45:00,
2013-09-27 09:50:00,77.6,61.7,29.90,SSE,158,6.3,9.6,58,0.00,,,0.00,WUHU216HW,2013-09-27 14:50:00,
2013-09-27 09:55:00,77.4,61.5,29.90,SSE,158,6.5,6.5,58,0.00,,,0.00,WUHU216HW,2013-09-27 14:55:00,
2013-09-27 10:00:00,76.9,60.9,29.90,SSE,158,6.3,10.5,58,0.00,,,0.00,WUHU216HW,2013-09-27 15:00:00,
2013-09-27 10:05:00,77.2,61.3,29.90,WSW,248,6.3,10.5,58,0.00,,,0.00,WUHU216HW,2013-09-27 15:05:00,
2013-09-27 10:10:00,77.8,61.8,29.90,SSW,203,4.7,7.2,58,0.00,,,0.00,WUHU216HW,2013-09-27 15:10:00,
2013-09-27 10:15:00,77.9,62.0,29.90,SSW,203,7.6,7.6,58,0.00,,,0.00,WUHU216HW,2013-09-27 15:15:00,
2013-09-27 10:20:00,78.1,62.2,29.90,South,180,5.6,7.6,58,0.00,,,0.00,WUHU216HW,2013-09-27 15:20:00,
2013-09-27 10:25:00,78.5,63.0,29.90,SW,225,5.8,8.7,59,0.00,,,0.00,WUHU216HW,2013-09-27 15:25:00,
2013-09-27 10:30:00,78.8,62.8,29.90,SW,225,8.1,8.7,58,0.00,,,0.00,WUHU216HW,2013-09-27 15:30:00,
2013-09-27 10:35:00,79.0,63.0,29.90,SE,135,5.6,8.1,58,0.00,,,0.00,WUHU216HW,2013-09-27 15:35:00,
2013-09-27 10:40:00,79.2,63.2,29.90,SSW,203,6.3,8.1,58,0.00,,,0.00,WUHU216HW,2013-09-27 15:40:00,
2013-09-27 10:45:00,79.4,63.4,29.90,SSW,203,4.5,7.2,58,0.00,,,0.00,WUHU216HW,2013-09-27 15:45:00,
2013-09-27 10:50:00,79.6,63.6,29.90,South,180,7.6,9.8,58,0.00,,,0.00,WUHU216HW,2013-09-27 15:50:00,
2013-09-27 10:55:00,79.9,63.3,29.90,SSW,203,10.5,10.5,57,0.00,,,0.00,WUHU216HW,2013-09-27 15:55:00,
2013-09-27 11:00:00,80.1,63.5,29.90,ESE,113,4.5,10.5,57,0.00,,,0.00,WUHU216HW,2013-09-27 16:00:00,
2013-09-27 11:05:00,80.8,64.1,29.90,SSE,158,9.4,10.5,57,0.00,,,0.00,WUHU216HW,2013-09-27 16:05:00,
2013-09-27 11:10:00,81.0,63.7,29.90,South,180,6.5,9.4,56,0.00,,,0.00,WUHU216HW,2013-09-27 16:10:00,
2013-09-27 11:15:00,81.4,64.1,29.89,South,180,8.9,9.4,56,0.00,,,0.00,WUHU216HW,2013-09-27 16:15:00,
2013-09-27 11:20:00,81.5,63.7,29.89,SSE,158,10.1,10.1,55,0.00,,,0.00,WUHU216HW,2013-09-27 16:20:00,
2013-09-27 11:25:00,81.7,63.9,29.89,SE,135,9.6,10.1,55,0.00,,,0.00,WUHU216HW,2013-09-27 16:25:00,
2013-09-27 11:30:00,81.9,64.1,29.89,West,270,9.8,11.4,55,0.00,,,0.00,WUHU216HW,2013-09-27 16:30:00,
2013-09-27 11:35:00,82.1,64.2,29.89,South,180,9.8,11.4,55,0.00,,,0.00,WUHU216HW,2013-09-27 16:35:00,
2013-09-27 11:40:00,82.3,64.4,29.89,SSW,203,8.9,9.8,55,0.00,,,0.00,WUHU216HW,2013-09-27 16:40:00,
2013-09-27 11:45:00,82.8,64.9,29.89,South,180,7.6,9.8,55,0.00,,,0.00,WUHU216HW,2013-09-27 16:45:00,
2013-09-27 11:50:00,83.2,64.7,29.88,South,180,7.4,7.6,54,0.00,,,0.00,WUHU216HW,2013-09-27 16:50:00,
2013-09-27 11:55:00,83.5,64.1,29.88,SSW,203,8.9,8.9,52,0.00,,,0.00,WUHU216HW,2013-09-27 16:55:00,
2013-09-27 12:00:00,83.5,64.5,29.88,WSW,248,6.9,8.9,53,0.00,,,0.00,WUHU216HW,2013-09-27 17:00:00,
2013-09-27 12:05:00,83.5,64.1,29.88,SSW,203,3.8,6.9,52,0.00,,,0.00,WUHU216HW,2013-09-27 17:05:00,
2013-09-27 12:10:00,84.2,65.8,29.88,SSE,158,10.5,10.5,54,0.00,,,0.00,WUHU216HW,2013-09-27 17:10:00,
2013-09-27 12:15:00,84.6,67.1,29.88,WSW,248,6.3,10.5,56,0.00,,,0.00,WUHU216HW,2013-09-27 17:15:00,
2013-09-27 12:20:00,85.0,66.4,29.88,SW,225,6.3,10.5,54,0.00,,,0.00,WUHU216HW,2013-09-27 17:20:00,
2013-09-27 12:25:00,84.6,65.1,29.88,ESE,113,8.7,10.3,52,0.00,,,0.00,WUHU216HW,2013-09-27 17:25:00,
2013-09-27 12:26:00,84.6,65.1,29.88,ESE,113,8.7,10.3,52,0.00,,,0.00,WUHU216HW,2013-09-27 17:26:00,
2013-09-27 12:31:00,84.6,64.5,29.88,SSE,158,9.4,10.3,51,0.00,,,0.00,WUHU216HW,2013-09-27 17:31:00,
2013-09-27 12:36:00,85.0,65.4,29.87,SSW,203,7.6,10.3,52,0.00,,,0.00,WUHU216HW,2013-09-27 17:36:00,
2013-09-27 12:41:00,85.3,66.2,29.87,SSW,203,8.1,10.3,53,0.00,,,0.00,WUHU216HW,2013-09-27 17:41:00,
2013-09-27 12:46:00,85.5,65.9,29.87,SSE,158,9.2,9.2,52,0.00,,,0.00,WUHU216HW,2013-09-27 17:46:00,
2013-09-27 12:51:00,85.7,65.5,29.87,ESE,113,6.9,12.1,51,0.00,,,0.00,WUHU216HW,2013-09-27 17:51:00,
2013-09-27 12:56:00,86.0,64.7,29.87,SW,225,8.5,12.1,49,0.00,,,0.00,WUHU216HW,2013-09-27 17:56:00,
2013-09-27 13:01:00,86.0,64.1,29.86,South,180,10.1,10.5,48,0.00,,,0.00,WUHU216HW,2013-09-27 18:01:00,
2013-09-27 13:06:00,86.2,64.9,29.86,SSE,158,9.8,12.8,49,0.00,,,0.00,WUHU216HW,2013-09-27 18:06:00,
2013-09-27 13:11:00,86.4,65.7,29.86,SSE,158,5.1,12.8,50,0.00,,,0.00,WUHU216HW,2013-09-27 18:11:00,
2013-09-27 13:16:00,86.6,65.8,29.86,SSW,203,7.2,10.5,50,0.00,,,0.00,WUHU216HW,2013-09-27 18:16:00,
2013-09-27 13:21:00,86.9,64.3,29.85,SSW,203,11.0,15.0,47,0.00,,,0.00,WUHU216HW,2013-09-27 18:21:00,
2013-09-27 13:26:00,86.8,64.1,29.85,SSW,203,10.5,15.0,47,0.00,,,0.00,WUHU216HW,2013-09-27 18:26:00,
2013-09-27 13:31:00,86.9,64.9,29.85,SSW,203,9.4,11.0,48,0.00,,,0.00,WUHU216HW,2013-09-27 18:31:00,
2013-09-27 13:36:00,87.1,63.8,29.85,SW,225,12.1,12.1,46,0.00,,,0.00,WUHU216HW,2013-09-27 18:36:00,
2013-09-27 13:41:00,87.3,64.0,29.85,SSW,203,11.2,12.1,46,0.00,,,0.00,WUHU216HW,2013-09-27 18:41:00,
2013-09-27 13:46:00,87.5,63.5,29.84,South,180,9.4,11.2,45,0.00,,,0.00,WUHU216HW,2013-09-27 18:46:00,
2013-09-27 13:51:00,87.5,61.6,29.84,SSW,203,14.1,14.1,42,0.00,,,0.00,WUHU216HW,2013-09-27 18:51:00,
2013-09-27 13:56:00,87.7,63.6,29.84,SSW,203,7.2,14.1,45,0.00,,,0.00,WUHU216HW,2013-09-27 18:56:00,
2013-09-27 14:02:00,88.0,64.0,29.84,SSW,203,6.5,11.9,45,0.00,,,0.00,WUHU216HW,2013-09-27 19:02:00,
2013-09-27 14:07:00,88.2,62.8,29.83,SSW,203,8.5,11.9,43,0.00,,,0.00,WUHU216HW,2013-09-27 19:07:00,
2013-09-27 14:12:00,88.2,62.8,29.83,SSW,203,7.8,11.9,43,0.00,,,0.00,WUHU216HW,2013-09-27 19:12:00,
2013-09-27 14:17:00,88.0,62.7,29.83,SSW,203,9.2,11.6,43,0.00,,,0.00,WUHU216HW,2013-09-27 19:17:00,
2013-09-27 14:22:00,88.0,64.0,29.83,SSW,203,5.1,11.0,45,0.00,,,0.00,WUHU216HW,2013-09-27 19:22:00,
2013-09-27 14:27:00,88.2,63.5,29.83,SSE,158,8.9,14.3,44,0.00,,,0.00,WUHU216HW,2013-09-27 19:27:00,
2013-09-27 14:32:00,88.0,62.7,29.82,SW,225,9.2,14.3,43,0.00,,,0.00,WUHU216HW,2013-09-27 19:32:00,
2013-09-27 14:37:00,87.8,62.6,29.82,South,180,11.4,11.4,43,0.00,,,0.00,WUHU216HW,2013-09-27 19:37:00,
2013-09-27 14:42:00,88.0,64.0,29.82,SSE,158,8.5,11.4,45,0.00,,,0.00,WUHU216HW,2013-09-27 19:42:00,
2013-09-27 14:47:00,88.2,63.5,29.82,SSW,203,9.2,13.4,44,0.00,,,0.00,WUHU216HW,2013-09-27 19:47:00,
2013-09-27 14:52:00,88.4,63.0,29.82,West,270,9.2,15.0,43,0.00,,,0.00,WUHU216HW,2013-09-27 19:52:00,
2013-09-27 14:57:00,88.2,62.2,29.82,SE,135,6.7,15.0,42,0.00,,,0.00,WUHU216HW,2013-09-27 19:57:00,
2013-09-27 15:02:00,88.0,62.7,29.82,SSW,203,7.6,11.6,43,0.00,,,0.00,WUHU216HW,2013-09-27 20:02:00,
2013-09-27 15:07:00,88.2,62.2,29.81,SSW,203,7.4,14.8,42,0.00,,,0.00,WUHU216HW,2013-09-27 20:07:00,
2013-09-27 15:12:00,88.0,62.1,29.81,SSW,203,10.3,17.0,42,0.00,,,0.00,WUHU216HW,2013-09-27 20:12:00,
2013-09-27 15:17:00,87.8,61.9,29.81,SE,135,13.4,17.0,42,0.00,,,0.00,WUHU216HW,2013-09-27 20:17:00,
2013-09-27 15:22:00,87.5,62.2,29.81,SSE,158,2.9,14.3,43,0.00,,,0.00,WUHU216HW,2013-09-27 20:22:00,
2013-09-27 15:27:00,87.8,62.6,29.81,SSE,158,13.2,14.3,43,0.00,,,0.00,WUHU216HW,2013-09-27 20:27:00,
2013-09-27 15:32:00,88.0,62.1,29.81,SSW,203,6.5,13.2,42,0.00,,,0.00,WUHU216HW,2013-09-27 20:32:00,
2013-09-27 15:37:00,88.2,62.8,29.80,SW,225,10.5,13.2,43,0.00,,,0.00,WUHU216HW,2013-09-27 20:37:00,
2013-09-27 15:42:00,88.2,62.2,29.80,SW,225,10.5,10.5,42,0.00,,,0.00,WUHU216HW,2013-09-27 20:42:00,
2013-09-27 15:47:00,88.2,62.2,29.80,SW,225,6.5,11.9,42,0.00,,,0.00,WUHU216HW,2013-09-27 20:47:00,
2013-09-27 15:52:00,88.0,62.1,29.80,SE,135,7.4,12.8,42,0.00,,,0.00,WUHU216HW,2013-09-27 20:52:00,
2013-09-27 15:57:00,87.8,61.3,29.80,SSE,158,14.3,14.3,41,0.00,,,0.00,WUHU216HW,2013-09-27 20:57:00,
2013-09-27 16:02:00,87.5,62.2,29.80,SSE,158,6.7,14.3,43,0.00,,,0.00,WUHU216HW,2013-09-27 21:02:00,
2013-09-27 16:07:00,87.3,62.1,29.80,SSE,158,6.0,14.3,43,0.00,,,0.00,WUHU216HW,2013-09-27 21:07:00,
2013-09-27 16:12:00,87.3,61.5,29.80,SSE,158,11.6,12.5,42,0.00,,,0.00,WUHU216HW,2013-09-27 21:12:00,
2013-09-27 16:17:00,86.9,61.1,29.80,SSW,203,10.7,12.5,42,0.00,,,0.00,WUHU216HW,2013-09-27 21:17:00,
2013-09-27 16:22:00,86.8,61.6,29.79,South,180,6.3,11.6,43,0.00,,,0.00,WUHU216HW,2013-09-27 21:22:00,
2013-09-27 16:27:00,86.6,60.8,29.80,SSW,203,12.1,12.1,42,0.00,,,0.00,WUHU216HW,2013-09-27 21:27:00,
2013-09-27 16:32:00,86.4,60.7,29.80,SSW,203,7.4,12.1,42,0.00,,,0.00,WUHU216HW,2013-09-27 21:32:00,
2013-09-27 16:37:00,86.0,60.9,29.80,South,180,10.3,12.8,43,0.00,,,0.00,WUHU216HW,2013-09-27 21:37:00,
2013-09-27 16:42:00,86.0,60.9,29.80,SSW,203,13.9,13.9,43,0.00,,,0.00,WUHU216HW,2013-09-27 21:42:00,
2013-09-27 16:47:00,86.0,60.9,29.80,SSW,203,9.8,13.9,43,0.00,,,0.00,WUHU216HW,2013-09-27 21:47:00,
2013-09-27 16:52:00,85.7,59.9,29.80,South,180,8.1,9.8,42,0.00,,,0.00,WUHU216HW,2013-09-27 21:52:00,
2013-09-27 16:57:00,85.5,59.9,29.80,SE,135,7.8,12.8,42,0.00,,,0.00,WUHU216HW,2013-09-27 21:57:00,
2013-09-27 17:02:00,85.3,60.3,29.80,SSW,203,10.3,12.8,43,0.00,,,0.00,WUHU216HW,2013-09-27 22:02:00,
2013-09-27 17:07:00,85.0,59.3,29.80,ESE,113,7.6,10.3,42,0.00,,,0.00,WUHU216HW,2013-09-27 22:07:00,
2013-09-27 17:12:00,84.6,59.7,29.80,SW,225,10.5,10.5,43,0.00,,,0.00,WUHU216HW,2013-09-27 22:12:00,
2013-09-27 17:17:00,84.6,60.3,29.80,SSE,158,10.3,10.5,44,0.00,,,0.00,WUHU216HW,2013-09-27 22:17:00,
2013-09-27 17:22:00,84.4,60.1,29.80,SSW,203,4.5,10.5,44,0.00,,,0.00,WUHU216HW,2013-09-27 22:22:00,
2013-09-27 17:27:00,84.2,60.6,29.80,SW,225,11.0,11.0,45,0.00,,,0.00,WUHU216HW,2013-09-27 22:27:00,
2013-09-27 17:32:00,83.9,59.6,29.80,SE,135,8.5,11.0,44,0.00,,,0.00,WUHU216HW,2013-09-27 22:32:00,
2013-09-27 17:37:00,83.9,60.2,29.80,SSE,158,8.5,11.0,45,0.00,,,0.00,WUHU216HW,2013-09-27 22:37:00,
2013-09-27 17:42:00,83.5,60.5,29.80,SSE,158,6.0,9.8,46,0.00,,,0.00,WUHU216HW,2013-09-27 22:42:00,
2013-09-27 17:47:00,83.3,60.3,29.80,SE,135,3.6,9.8,46,0.00,,,0.00,WUHU216HW,2013-09-27 22:47:00,
2013-09-27 17:52:00,83.2,60.1,29.80,SE,135,7.6,7.6,46,0.00,,,0.00,WUHU216HW,2013-09-27 22:52:00,
2013-09-27 17:57:00,83.0,60.0,29.80,SW,225,5.8,7.6,46,0.00,,,0.00,WUHU216HW,2013-09-27 22:57:00,
2013-09-27 18:02:00,82.4,59.5,29.80,SSW,203,8.5,9.2,46,0.00,,,0.00,WUHU216HW,2013-09-27 23:02:00,
2013-09-27 18:07:00,82.1,59.8,29.80,SE,135,7.2,9.2,47,0.00,,,0.00,WUHU216HW,2013-09-27 23:07:00,
2013-09-27 18:12:00,81.7,60.0,29.80,SE,135,5.1,7.2,48,0.00,,,0.00,WUHU216HW,2013-09-27 23:12:00,
2013-09-27 18:17:00,81.7,60.0,29.80,SW,225,6.0,6.3,48,0.00,,,0.00,WUHU216HW,2013-09-27 23:17:00,
2013-09-27 18:22:00,81.4,59.8,29.80,WSW,248,4.7,6.0,48,0.00,,,0.00,WUHU216HW,2013-09-27 23:22:00,
2013-09-27 18:27:00,81.0,59.4,29.80,SE,135,5.8,6.0,48,0.00,,,0.00,WUHU216HW,2013-09-27 23:27:00,
2013-09-27 18:32:00,80.6,59.7,29.80,SSE,158,4.7,5.8,49,0.00,,,0.00,WUHU216HW,2013-09-27 23:32:00,
2013-09-27 18:37:00,80.3,59.9,29.80,SSE,158,3.1,4.9,50,0.00,,,0.00,WUHU216HW,2013-09-27 23:37:00,
2013-09-27 18:42:00,79.7,60.0,29.80,SW,225,3.8,4.7,51,0.00,,,0.00,WUHU216HW,2013-09-27 23:42:00,
2013-09-27 18:47:00,79.2,60.0,29.80,South,180,5.4,5.4,52,0.00,,,0.00,WUHU216HW,2013-09-27 23:47:00,
2013-09-27 18:52:00,78.8,60.2,29.80,South,180,2.5,5.4,53,0.00,,,0.00,WUHU216HW,2013-09-27 23:52:00,
2013-09-27 18:57:00,78.3,59.8,29.80,SSE,158,3.4,5.4,53,0.00,,,0.00,WUHU216HW,2013-09-27 23:57:00,
2013-09-27 19:02:00,77.8,59.2,29.80,South,180,2.0,5.4,53,0.00,,,0.00,WUHU216HW,2013-09-28 00:02:00,
2013-09-27 19:07:00,77.2,59.2,29.80,SE,135,4.5,4.7,54,0.00,,,0.00,WUHU216HW,2013-09-28 00:07:00,
2013-09-27 19:12:00,77.0,59.0,29.80,SE,135,2.2,4.7,54,0.00,,,0.00,WUHU216HW,2013-09-28 00:12:00,
2013-09-27 19:17:00,76.3,59.0,29.80,South,180,4.5,4.5,55,0.00,,,0.00,WUHU216HW,2013-09-28 00:17:00,
2013-09-27 19:22:00,75.8,59.0,29.80,SSE,158,2.5,4.5,56,0.00,,,0.00,WUHU216HW,2013-09-28 00:22:00,
2013-09-27 19:27:00,75.2,59.0,29.80,South,180,2.7,3.6,57,0.00,,,0.00,WUHU216HW,2013-09-28 00:27:00,
2013-09-27 19:32:00,74.9,59.1,29.80,South,180,3.8,3.8,58,0.00,,,0.00,WUHU216HW,2013-09-28 00:32:00,
2013-09-27 19:37:00,74.5,58.8,29.80,SSW,203,2.5,4.0,58,0.00,,,0.00,WUHU216HW,2013-09-28 00:37:00,
2013-09-27 19:42:00,74.2,58.4,29.80,South,180,3.4,4.0,58,0.00,,,0.00,WUHU216HW,2013-09-28 00:42:00,
2013-09-27 19:47:00,74.2,58.4,29.80,SE,135,2.5,4.5,58,0.00,,,0.00,WUHU216HW,2013-09-28 00:47:00,
2013-09-27 19:52:00,73.8,58.1,29.80,ESE,113,3.6,4.5,58,0.00,,,0.00,WUHU216HW,2013-09-28 00:52:00,
2013-09-27 19:57:00,73.8,58.5,29.80,SSE,158,3.6,5.1,59,0.00,,,0.00,WUHU216HW,2013-09-28 00:57:00,
2013-09-27 20:02:00,73.8,58.5,29.80,South,180,3.4,5.1,59,0.00,,,0.00,WUHU216HW,2013-09-28 01:02:00,
2013-09-27 20:07:00,73.8,58.5,29.80,SSE,158,2.0,4.3,59,0.00,,,0.00,WUHU216HW,2013-09-28 01:07:00,
2013-09-27 20:12:00,73.6,58.3,29.80,SSE,158,2.5,3.4,59,0.00,,,0.00,WUHU216HW,2013-09-28 01:12:00,
2013-09-27 20:17:00,73.4,58.1,29.81,SE,135,4.0,4.0,59,0.00,,,0.00,WUHU216HW,2013-09-28 01:17:00,
2013-09-27 20:22:00,73.1,57.9,29.81,ESE,113,4.0,4.7,59,0.00,,,0.00,WUHU216HW,2013-09-28 01:22:00,
2013-09-27 20:27:00,73.1,58.3,29.81,SE,135,3.4,4.7,60,0.00,,,0.00,WUHU216HW,2013-09-28 01:27:00,
2013-09-27 20:32:00,73.1,58.3,29.81,SE,135,5.1,5.4,60,0.00,,,0.00,WUHU216HW,2013-09-28 01:32:00,
2013-09-27 20:37:00,73.1,58.3,29.81,ENE,68,2.9,5.4,60,0.00,,,0.00,WUHU216HW,2013-09-28 01:37:00,
2013-09-27 20:42:00,73.1,58.3,29.81,SE,135,5.4,5.4,60,0.00,,,0.00,WUHU216HW,2013-09-28 01:42:00,
2013-09-27 20:47:00,73.1,58.3,29.81,South,180,5.6,6.5,60,0.00,,,0.00,WUHU216HW,2013-09-28 01:47:00,
2013-09-27 20:52:00,73.1,58.3,29.81,SE,135,2.0,6.5,60,0.00,,,0.00,WUHU216HW,2013-09-28 01:52:00,
2013-09-27 20:57:00,72.9,58.2,29.81,South,180,4.5,4.7,60,0.00,,,0.00,WUHU216HW,2013-09-28 01:57:00,
2013-09-27 21:02:00,72.7,58.1,29.81,ESE,113,0.9,4.5,60,0.00,,,0.00,WUHU216HW,2013-09-28 02:02:00,
2013-09-27 21:07:00,72.5,57.9,29.82,South,180,2.2,4.5,60,0.00,,,0.00,WUHU216HW,2013-09-28 02:07:00,
2013-09-27 21:12:00,72.4,57.7,29.82,SE,135,3.1,3.8,60,0.00,,,0.00,WUHU216HW,2013-09-28 02:12:00,
2013-09-27 21:17:00,72.4,58.1,29.82,SE,135,1.6,4.3,61,0.00,,,0.00,WUHU216HW,2013-09-28 02:17:00,
2013-09-27 21:22:00,72.2,58.0,29.82,SE,135,2.5,4.3,61,0.00,,,0.00,WUHU216HW,2013-09-28 02:22:00,
2013-09-27 21:27:00,72.2,58.0,29.82,South,180,4.0,4.9,61,0.00,,,0.00,WUHU216HW,2013-09-28 02:27:00,
2013-09-27 21:32:00,72.0,57.8,29.82,SE,135,3.4,4.9,61,0.00,,,0.00,WUHU216HW,2013-09-28 02:32:00,
2013-09-27 21:37:00,71.8,57.7,29.82,SSE,158,5.1,5.1,61,0.00,,,0.00,WUHU216HW,2013-09-28 02:37:00,
2013-09-27 21:42:00,71.6,57.5,29.82,South,180,1.8,5.1,61,0.00,,,0.00,WUHU216HW,2013-09-28 02:42:00,
2013-09-27 21:47:00,71.6,57.5,29.82,SE,135,4.0,5.1,61,0.00,,,0.00,WUHU216HW,2013-09-28 02:47:00,
2013-09-27 21:52:00,71.6,57.5,29.82,SE,135,5.8,5.8,61,0.00,,,0.00,WUHU216HW,2013-09-28 02:52:00,
2013-09-27 21:57:00,71.5,57.3,29.82,SSE,158,2.9,5.8,61,0.00,,,0.00,WUHU216HW,2013-09-28 02:57:00,
2013-09-27 22:02:00,71.5,57.3,29.82,SE,135,2.7,5.8,61,0.00,,,0.00,WUHU216HW,2013-09-28 03:02:00,
2013-09-27 22:07:00,71.3,57.2,29.81,ENE,68,1.8,2.9,61,0.00,,,0.00,WUHU216HW,2013-09-28 03:07:00,
2013-09-27 22:12:00,71.1,57.0,29.82,SE,135,1.6,2.7,61,0.00,,,0.00,WUHU216HW,2013-09-28 03:12:00,
2013-09-27 22:17:00,70.7,55.7,29.82,South,180,1.8,3.1,59,0.00,,,0.00,WUHU216HW,2013-09-28 03:17:00,
2013-09-27 22:22:00,70.6,55.6,29.82,East,90,2.9,3.4,59,0.00,,,0.00,WUHU216HW,2013-09-28 03:22:00,
2013-09-27 22:27:00,70.6,55.6,29.82,SSE,158,6.3,6.3,59,0.00,,,0.00,WUHU216HW,2013-09-28 03:27:00,
2013-09-27 22:32:00,70.6,55.6,29.82,SSE,158,2.9,6.3,59,0.00,,,0.00,WUHU216HW,2013-09-28 03:32:00,
2013-09-27 22:37:00,70.6,55.6,29.82,SSE,158,7.8,7.8,59,0.00,,,0.00,WUHU216HW,2013-09-28 03:37:00,
2013-09-27 22:42:00,70.6,55.6,29.81,SE,135,3.4,7.8,59,0.00,,,0.00,WUHU216HW,2013-09-28 03:42:00,
2013-09-27 22:47:00,70.6,55.6,29.81,South,180,4.3,8.1,59,0.00,,,0.00,WUHU216HW,2013-09-28 03:47:00,
2013-09-27 22:52:00,70.6,55.6,29.81,South,180,6.0,8.1,59,0.00,,,0.00,WUHU216HW,2013-09-28 03:52:00,
2013-09-27 22:57:00,70.6,55.6,29.80,East,90,5.1,6.0,59,0.00,,,0.00,WUHU216HW,2013-09-28 03:57:00,
2013-09-27 23:01:00,70.6,55.6,29.80,ESE,113,4.7,6.0,59,0.00,,,0.00,WUHU216HW,2013-09-28 04:01:00,
2013-09-27 23:02:00,70.6,55.6,29.80,SSE,158,5.4,6.0,59,0.00,,,0.00,WUHU216HW,2013-09-28 04:02:00,
2013-09-27 23:07:00,70.6,55.6,29.80,SSE,158,4.9,5.4,59,0.00,,,0.00,WUHU216HW,2013-09-28 04:07:00,
2013-09-27 23:12:00,70.7,55.7,29.80,SSE,158,4.5,6.7,59,0.00,,,0.00,WUHU216HW,2013-09-28 04:12:00,
2013-09-27 23:17:00,70.7,55.7,29.80,SE,135,6.3,6.7,59,0.00,,,0.00,WUHU216HW,2013-09-28 04:17:00,
2013-09-27 23:22:00,70.9,55.9,29.80,SSE,158,8.5,8.5,59,0.00,,,0.00,WUHU216HW,2013-09-28 04:22:00,
2013-09-27 23:27:00,70.9,55.9,29.79,South,180,7.4,8.5,59,0.00,,,0.00,WUHU216HW,2013-09-28 04:27:00,
2013-09-27 23:32:00,70.9,55.9,29.80,SE,135,5.8,7.4,59,0.00,,,0.00,WUHU216HW,2013-09-28 04:32:00,
2013-09-27 23:37:00,71.3,56.3,29.80,SSE,158,5.1,7.4,59,0.00,,,0.00,WUHU216HW,2013-09-28 04:37:00,
2013-09-27 23:42:00,71.3,56.3,29.79,SSE,158,9.6,10.1,59,0.00,,,0.00,WUHU216HW,2013-09-28 04:42:00,
2013-09-27 23:47:00,71.5,56.4,29.79,SE,135,5.4,10.1,59,0.00,,,0.00,WUHU216HW,2013-09-28 04:47:00,
2013-09-27 23:51:00,71.5,56.4,29.79,South,180,8.7,10.3,59,0.00,,,0.00,WUHU216HW,2013-09-28 04:51:00,
2013-09-27 23:56:00,71.5,56.4,29.79,SW,225,3.1,10.3,59,0.00,,,0.00,WUHU216HW,2013-09-28 04:56:00,